Platteville, WI

8:28 AM CST on December 03, 2016 (GMT -0600)
Platteville Municipal

Weather History for KPVB - April, 2012

Change the Weather History Date:

Friday, April 13, 2012

  Actual Average (KDBQ) Record (KDBQ)
Temperature  
Mean Temperature 47 °F 47 °F  
Max Temperature 53 °F 58 °F 83 °F (1887)
Min Temperature 41 °F 37 °F 20 °F (1957)
Degree Days  
Heating Degree Days 18 18  
Month to date heating degree days 263  
Since 1 July heating degree days 6574  
Cooling Degree Days 0 0  
Month to date cooling degree days 0  
Year to date cooling degree days 0  
Moisture  
Dew Point 38 °F    
Average Humidity 70    
Maximum Humidity 87    
Minimum Humidity 47    
Precipitation  
Precipitation 0.01 in 0.12 in 2.77 in (2014)
Month to date precipitation 1.46  
Year to date precipitation 6.48  
Snow  
Snow 0.00 in 0.10 in - ()
Month to date snowfall 1.3  
Since 1 July snowfall 41.2  
Snow Depth -    
Sea Level Pressure  
Sea Level Pressure 30.03 in    
Wind  
Wind Speed 14 mph (SE)    
Max Wind Speed 24 mph    
Max Gust Speed 33 mph    
Visibility 10 miles    
Events      
T = Trace of Precipitation, MM = Missing Value Source: NWS Daily Summary

Daily Weather History Graph

Daily Weather History Graph

Search for Another Location

Airport or City:

Trip Planner

Search our weather history database for the weather conditions in past years. The results will help you decide how hot, cold, wet, or windy it might be!

Date:

Astronomy

Apr. 13, 2012 Rise Set
Actual Time 6:22 AM CDT 7:42 PM CDT
Civil Twilight 5:53 AM CDT 8:11 PM CDT
Nautical Twilight 5:18 AM CDT 8:46 PM CDT
Astronomical Twilight 4:41 AM CDT 9:24 PM CDT
Moon 2:16 AM CDT (4/13) 12:22 PM CDT (4/13)
Length of Visible Light 14h 17m
Length of Day
13h 19m
Waning Gibbous, 47% of the Moon is Illuminated
Apr 13
Waning Gibbous
Apr 21
New
Apr 29
First Quarter
May 5
Full
May 12
Last Quarter

Hourly Weather History & Observations

Time (CDT) Temp. Windchill Dew Point Humidity Pressure Visibility Wind Dir Wind Speed Gust Speed Precip Events Conditions
12:15 AM 46.4 °F 41.9 °F 28.4 °F 50% 30.12 in 10.0 mi East 9.2 mph - N/A   Clear
12:55 AM 44.6 °F 39.7 °F 30.2 °F 57% 30.12 in 10.0 mi East 9.2 mph - N/A   Clear
1:15 AM 44.6 °F 39.7 °F 30.2 °F 57% 30.12 in 10.0 mi East 9.2 mph - N/A   Clear
2:15 AM 42.8 °F 37.5 °F 30.2 °F 61% 30.11 in 10.0 mi East 9.2 mph - N/A   Clear
2:35 AM 42.8 °F 36.6 °F 32.0 °F 66% 30.12 in 10.0 mi ESE 11.5 mph - N/A   Clear
3:15 AM 41.0 °F 35.2 °F 32.0 °F 70% 30.12 in 10.0 mi ESE 9.2 mph - N/A   Clear
3:35 AM 41.0 °F 33.9 °F 32.0 °F 70% 30.11 in 10.0 mi ESE 12.7 mph - N/A   Clear
3:55 AM 41.0 °F 33.9 °F 32.0 °F 70% 30.12 in 10.0 mi ESE 12.7 mph - N/A   Clear
4:15 AM 41.0 °F 34.3 °F 32.0 °F 70% 30.12 in 10.0 mi ESE 11.5 mph - N/A   Clear
4:35 AM 41.0 °F 34.7 °F 32.0 °F 70% 30.11 in 10.0 mi East 10.4 mph - N/A   Clear
5:15 AM 41.0 °F 35.2 °F 32.0 °F 70% 30.09 in 10.0 mi East 9.2 mph - N/A   Clear
5:55 AM 41.0 °F 35.8 °F 32.0 °F 70% 30.11 in 10.0 mi East 8.1 mph - N/A   Clear
6:35 AM 41.0 °F 34.7 °F 32.0 °F 70% 30.07 in 10.0 mi East 10.4 mph - N/A   Clear
6:55 AM 41.0 °F 34.3 °F 32.0 °F 70% 30.09 in 10.0 mi ESE 11.5 mph - N/A   Clear
7:15 AM 41.0 °F 34.7 °F 32.0 °F 70% 30.09 in 10.0 mi East 10.4 mph - N/A   Clear
7:35 AM 42.8 °F 37.0 °F 32.0 °F 66% 30.09 in 10.0 mi ESE 10.4 mph - N/A   Clear
7:55 AM 44.6 °F 38.4 °F 32.0 °F 61% 30.10 in 10.0 mi ESE 12.7 mph - N/A   Clear
9:15 AM 51.8 °F - 32.0 °F 47% 30.09 in 10.0 mi SE 16.1 mph - N/A   Clear
10:55 AM 51.8 °F - 32.0 °F 47% 30.11 in 10.0 mi South 19.6 mph 25.3 mph N/A   Overcast
11:35 AM 46.4 °F 39.0 °F 41.0 °F 81% 30.08 in 10.0 mi SSE 19.6 mph 27.6 mph 0.01 in   Overcast
11:55 AM 46.4 °F 38.5 °F 41.0 °F 81% 30.10 in 10.0 mi SSE 21.9 mph 28.8 mph 0.01 in   Overcast
12:15 PM 46.4 °F 38.7 °F 41.0 °F 81% 30.09 in 7.0 mi SSE 20.7 mph 28.8 mph N/A   Overcast
12:35 PM 46.4 °F 38.3 °F 41.0 °F 81% 30.09 in 10.0 mi SSE 23.0 mph 33.4 mph N/A   Overcast
12:55 PM 46.4 °F 38.3 °F 41.0 °F 81% 30.09 in 10.0 mi SSE 23.0 mph 27.6 mph N/A   Overcast
1:15 PM 48.2 °F - 41.0 °F 76% 30.08 in 10.0 mi SSE 20.7 mph 26.5 mph N/A   Overcast
1:35 PM 48.2 °F - 41.0 °F 76% 30.07 in 10.0 mi SE 19.6 mph 29.9 mph N/A   Overcast
1:55 PM 48.2 °F - 41.0 °F 76% 30.06 in 10.0 mi SE 20.7 mph 27.6 mph N/A   Overcast
2:15 PM 50.0 °F - 41.0 °F 71% 30.04 in 10.0 mi SE 18.4 mph - N/A   Overcast
2:35 PM 51.8 °F - 39.2 °F 62% 30.02 in 10.0 mi SE 23.0 mph 29.9 mph N/A   Overcast
2:55 PM 51.8 °F - 39.2 °F 62% 30.01 in 10.0 mi SE 19.6 mph 33.4 mph N/A   Overcast
3:15 PM 51.8 °F - 41.0 °F 67% 30.00 in 10.0 mi SSE 24.2 mph 31.1 mph N/A   Overcast
3:35 PM 53.6 °F - 41.0 °F 62% 29.99 in 10.0 mi SE 23.0 mph 32.2 mph N/A   Overcast
3:55 PM 53.6 °F - 39.2 °F 58% 29.98 in 10.0 mi SSE 23.0 mph 28.8 mph N/A   Overcast
4:15 PM 53.6 °F - 39.2 °F 58% 29.98 in 10.0 mi SSE 19.6 mph 32.2 mph N/A   Overcast
4:55 PM 51.8 °F - 39.2 °F 62% 29.97 in 10.0 mi SE 17.3 mph 25.3 mph N/A   Overcast
5:15 PM 51.8 °F - 39.2 °F 62% 29.95 in 10.0 mi SE 18.4 mph 26.5 mph N/A   Overcast
5:35 PM 51.8 °F - 39.2 °F 62% 29.96 in 10.0 mi SSE 21.9 mph 27.6 mph N/A   Overcast
5:55 PM 51.8 °F - 39.2 °F 62% 29.95 in 10.0 mi SSE 20.7 mph - N/A   Overcast
6:35 PM 51.8 °F - 41.0 °F 67% 29.96 in 10.0 mi SSE 19.6 mph 25.3 mph N/A   Overcast
6:55 PM 51.8 °F - 41.0 °F 67% 29.96 in 10.0 mi SSE 23.0 mph 27.6 mph N/A   Overcast
7:15 PM 51.8 °F - 41.0 °F 67% 29.96 in 10.0 mi SSE 16.1 mph 23.0 mph N/A   Overcast
7:35 PM 51.8 °F - 41.0 °F 67% 29.97 in 10.0 mi SSE 12.7 mph 20.7 mph N/A   Overcast
7:55 PM 50.0 °F - 41.0 °F 71% 29.96 in 10.0 mi SSE 19.6 mph 25.3 mph N/A   Overcast
8:15 PM 50.0 °F - 42.8 °F 76% 29.94 in 10.0 mi SSE 20.7 mph - N/A   Overcast
8:35 PM 50.0 °F - 42.8 °F 76% 29.95 in 10.0 mi SSE 19.6 mph 27.6 mph N/A   Overcast
8:55 PM 50.0 °F - 42.8 °F 76% 29.95 in 10.0 mi SSE 15.0 mph 25.3 mph N/A   Overcast
9:15 PM 50.0 °F - 42.8 °F 76% 29.95 in 10.0 mi SSE 13.8 mph 23.0 mph N/A   Overcast
9:35 PM 50.0 °F - 44.6 °F 82% 29.95 in 10.0 mi SSE 13.8 mph - N/A   Overcast
9:55 PM 50.0 °F - 44.6 °F 82% 29.95 in 10.0 mi South 15.0 mph - N/A   Overcast
10:15 PM 48.2 °F - 44.6 °F 87% 29.95 in 10.0 mi SSE 15.0 mph 23.0 mph N/A   Overcast
10:35 PM 48.2 °F - 44.6 °F 87% 29.95 in 10.0 mi SSE 13.8 mph - N/A   Overcast
10:55 PM 48.2 °F - 44.6 °F 87% 29.95 in 10.0 mi SSE 11.5 mph - N/A   Overcast
11:15 PM 50.0 °F - 44.6 °F 82% 29.96 in 10.0 mi South 17.3 mph 20.7 mph N/A   Overcast
11:35 PM 50.0 °F - 44.6 °F 82% 29.95 in 10.0 mi South 16.1 mph 23.0 mph N/A   Overcast
11:55 PM 50.0 °F - 44.6 °F 82% 29.94 in 10.0 mi South 12.7 mph - N/A   Overcast